Location: Unspecified
(0.0000°N, 0.0000°E)
Time: 17:02:20
(UTC+02:00)

Cosmos 1954 Rocket - Visible Passes

Search period start: 30 July 2016 00:00
Search period end: 09 August 2016 00:00
Orbit: 753 x 781 km, 74.0° (Epoch: 29 July)

Date Brightness Start Highest point End Pass type
(mag) Time Alt. Az. Time Alt. Az. Time Alt. Az.
01 Aug 6.4 22:01:36 10° NNE 22:01:43 10° NNE 22:01:43 10° NNE visible
02 Aug 6.8 23:05:35 10° NW 23:06:01 12° NW 23:06:01 12° NW visible
03 Aug 5.7 22:27:57 10° NNW 22:30:09 26° NNW 22:30:09 26° NNW visible
04 Aug 4.8 21:50:56 10° N 21:54:22 37° NNE 21:54:22 37° NNE visible
05 Aug 5.1 21:14:36 10° NNE 21:18:40 24° ENE 21:18:40 24° ENE visible
05 Aug 6.5 22:56:47 10° WNW 22:58:59 17° W 22:58:59 17° W visible
06 Aug 5.8 20:39:54 10° ENE 20:41:34 11° ENE 20:43:05 10° E visible
06 Aug 5.1 22:18:25 10° NNW 22:23:19 40° WSW 22:23:25 40° WSW visible
07 Aug 4.0 21:40:50 10° NNW 21:46:06 84° W 21:47:58 42° S visible
08 Aug 4.3 21:03:52 10° N 21:08:54 47° ENE 21:12:39 18° SE visible
